星链-5465 (STARLINK-5465 )

导读

STARLINK-5465是美国太空探索技术公司(SpaceX)在2022年12月17日发射的星链(Starlink)低轨通信卫星,隶属于第二代星链组网卫星。该卫星旨在为全球提供高速低延迟互联网接入服务,尤其是覆盖偏远地区与网络基础设施匮乏区域,是SpaceX构建全球卫星互联网星座计划的组成部分。

Basic Information
目录编号:
54775
目录名称:
STARLINK-5465
国际标识:
2022-175T
轨道中心:
EARTH
卫星名称:
星链-5465
卫星全名:
星链-5465 (STARLINK-5465 )
卫星状态:
在轨 (已飞行1357 天)
发射日期:
2022-12-17 UTC
国别 :
美国 (US)
星等 :
--
Orbit Information
数据来源 国际轨道数据
星历时间: 2026-09-03T22:12:25+0800
14小时前
查看轨道信息
半长轴: 6840.858km
偏心率: 0.0001436
轨道倾角: 53.160°
近地点辐角 96.928°
升交点赤经 316.692°
平近点角 263.188°
近地点: 461.738km
远地点: 463.704km
周期: 93.848分钟
每日圈数: 15.343941
Detailed Information
固有亮度:
5
最大亮度:
2.5
卫星平台:
Starlink v1.5
覆盖范围:
全球
运营商:
太空探索技术公司
运营商所在国:
美国
制造商(研发单位):
太空探索技术公司
制造商所在国:
美国
使用方式:
暂无
Satellite Introduction
星链(Starlink)计划是由太空探索技术公司(SpaceX)提出的一个巨型低轨卫星互联网星座项目,计划在2019年至2024年间在太空搭建由约1.2万颗卫星组成的“星链”网络,其中1584颗将部署在地球上空550千米处的近地轨道,并从2020年开始工作。该卫星仍在工作。
2D Orbit Map
3D Orbit Map
Orbit Altitude Analysis Chart
Orbit Inclination Analysis Chart
Orbit Comprehensive Analysis Chart
View Comprehensive Chart
Conjunction Data List
Event ID Objects TCA Miss Dist (km) Collision Risk Probability Collision Risk Index (CRI) Action
CDM_260902-134505-477506-539321
2026-09-02T
13:45:37+0000
2.469 km
极远距离
1.764734E-6 低风险 0.4
CDM_260903-213005-477506-925321
2026-09-03T
21:30:26+0000
2.975 km
极远距离
9.676901E-7 极低风险 0.35